Temperature and Humidity Remote Tracking for Floodgap HQ Data Center
updated every 10 minutes

                   |5         6         7         8         9        10
                   |012345678901234567890123456789012345678901234567890
--------------------+----------------------------------------------------
8/8/2020 16:00:01   ||||||||||||||||||||||||||||| (76.6 F) 35.5%
8/8/2020 15:50:01   |||||||||||||||||||||||||||| (76.2 F) 35.5%
8/8/2020 15:40:00   ||||||||||||||||||||||||||||| (76.8 F) 35.4%
8/8/2020 15:30:00   |||||||||||||||||||||||||||||| (77.7 F) 35.7%
8/8/2020 15:20:01   ||||||||||||||||||||||||||||| (76.9 F) 36%
8/8/2020 15:10:00   |||||||||||||||||||||||||||||| (77.5 F) 35.6%
8/8/2020 15:00:01   |||||||||||||||||||||||||||||||| (80.1 F) 37.6%
8/8/2020 14:50:01   ||||||||||||||||||||||||||||||| (79 F) 37.7%
8/8/2020 14:40:00   ||||||||||||||||||||||||||||| (77.4 F) 35.9%
8/8/2020 14:30:01   ||||||||||||||||||||||||||||| (77.3 F) 35.5%
8/8/2020 14:20:01   |||||||||||||||||||||||||||||| (77.6 F) 36%
8/8/2020 14:10:00   ||||||||||||||||||||||||||||| (77 F) 36%
8/8/2020 14:00:01   |||||||||||||||||||||||||||||||| (80 F) 37.4%
8/8/2020 13:50:01   ||||||||||||||||||||||||||||||| (79.3 F) 38.2%
8/8/2020 13:40:00   |||||||||||||||||||||||||||||| (78.1 F) 38.3%
8/8/2020 13:30:01   ||||||||||||||||||||||||||||| (76.7 F) 36.5%
8/8/2020 13:20:01   ||||||||||||||||||||||||||||| (77.1 F) 36.6%
8/8/2020 13:10:01   ||||||||||||||||||||||||||||| (77 F) 37%
8/8/2020 13:00:01   ||||||||||||||||||||||||||||| (77 F) 36.8%
8/8/2020 12:50:00   ||||||||||||||||||||||||||||| (77 F) 37%
8/8/2020 12:40:01   ||||||||||||||||||||||||||||| (76.7 F) 37.1%
8/8/2020 12:30:01   ||||||||||||||||||||||||||||||| (79.1 F) 39.9%
8/8/2020 12:20:00   |||||||||||||||||||||||||||||| (78 F) 39.1%
8/8/2020 12:10:01   |||||||||||||||||||||||||||| (76.2 F) 38.1%
8/8/2020 12:00:00   |||||||||||||||||||||||||||| (76.4 F) 37.8%
8/8/2020 11:50:01   ||||||||||||||||||||||||||||| (76.7 F) 37.2%
8/8/2020 11:40:01   |||||||||||||||||||||||||||||| (78.2 F) 36.5%
8/8/2020 11:30:01   |||||||||||||||||||||||||||||||| (79.9 F) 38.5%
8/8/2020 11:20:00   |||||||||||||||||||||||||||||||| (79.5 F) 38.6%
8/8/2020 11:10:01   ||||||||||||||||||||||||||||||| (78.9 F) 39.1%
8/8/2020 11:00:01   |||||||||||||||||||||||||||||| (78.1 F) 39.5%
8/8/2020 10:50:02   ||||||||||||||||||||||||||||| (76.8 F) 38.5%
8/8/2020 10:40:01   |||||||||||||||||||||||||||| (75.5 F) 38.1%
8/8/2020 10:30:02   |||||||||||||||||||||||||||| (75.9 F) 37.5%
8/8/2020 10:20:01   ||||||||||||||||||||||||||||| (76.6 F) 36.5%
8/8/2020 10:10:02   ||||||||||||||||||||||||||||||| (78.8 F) 34.7%
8/8/2020 10:00:01   |||||||||||||||||||||||||||||||| (80 F) 35.3%
8/8/2020 09:50:01   |||||||||||||||||||||||||||||||| (79.9 F) 35.2%
8/8/2020 09:40:01   |||||||||||||||||||||||||||||||| (79.7 F) 35.3%
8/8/2020 09:30:02   |||||||||||||||||||||||||||||||| (79.5 F) 35.5%
8/8/2020 09:20:01   |||||||||||||||||||||||||||||||| (79.5 F) 35.3%
8/8/2020 09:10:01   ||||||||||||||||||||||||||||||| (79.3 F) 35.4%
8/8/2020 09:00:01   ||||||||||||||||||||||||||||||| (79 F) 35.6%
8/8/2020 08:50:02   ||||||||||||||||||||||||||||||| (78.9 F) 35.6%
8/8/2020 08:40:01   ||||||||||||||||||||||||||||||| (78.7 F) 35.8%
8/8/2020 08:30:01   ||||||||||||||||||||||||||||||| (78.5 F) 36%
8/8/2020 08:20:02   |||||||||||||||||||||||||||||| (78.3 F) 36.1%
8/8/2020 08:10:02   |||||||||||||||||||||||||||||| (77.9 F) 36.4%
8/8/2020 08:00:01   ||||||||||||||||||||||||||||| (77.4 F) 37.3%
8/8/2020 07:50:01   ||||||||||||||||||||||||||||| (76.6 F) 36.9%
8/8/2020 07:40:01   |||||||||||||||||||||||||||| (76.3 F) 36.1%
8/8/2020 07:30:00   ||||||||||||||||||||||||||||| (76.8 F) 37.2%
8/8/2020 07:20:01   ||||||||||||||||||||||||||||| (76.8 F) 35.6%
8/8/2020 07:10:01   ||||||||||||||||||||||||||||| (77.3 F) 36.9%
8/8/2020 07:00:01   |||||||||||||||||||||||||||| (76.2 F) 36.4%
8/8/2020 06:50:01   ||||||||||||||||||||||||||||| (77.1 F) 35.8%
8/8/2020 06:40:01   ||||||||||||||||||||||||||||| (77.4 F) 37.1%
8/8/2020 06:30:00   ||||||||||||||||||||||||||||| (76.5 F) 37.7%
8/8/2020 06:20:01   |||||||||||||||||||||||||||| (76.1 F) 36.4%
8/8/2020 06:10:01   ||||||||||||||||||||||||||||| (77.1 F) 36.1%
8/8/2020 06:00:01   |||||||||||||||||||||||||||||| (77.5 F) 37.7%
8/8/2020 05:50:00   ||||||||||||||||||||||||||||| (76.6 F) 36.4%
8/8/2020 05:40:01   ||||||||||||||||||||||||||||| (76.7 F) 36.8%
8/8/2020 05:30:01   ||||||||||||||||||||||||||||| (77 F) 36.5%
8/8/2020 05:20:00   |||||||||||||||||||||||||||||| (77.5 F) 37.4%
8/8/2020 05:10:01   ||||||||||||||||||||||||||||| (76.5 F) 36.7%
8/8/2020 05:00:00   ||||||||||||||||||||||||||||| (76.8 F) 37.7%
8/8/2020 04:50:01   |||||||||||||||||||||||||||| (76.4 F) 36.6%
8/8/2020 04:40:01   ||||||||||||||||||||||||||||| (77.4 F) 36.5%
8/8/2020 04:30:01   |||||||||||||||||||||||||||||| (77.6 F) 38.2%
8/8/2020 04:20:00   ||||||||||||||||||||||||||||| (76.7 F) 36.9%
8/8/2020 04:10:01   ||||||||||||||||||||||||||||| (76.5 F) 37.1%
8/8/2020 04:00:01   ||||||||||||||||||||||||||||| (76.5 F) 37.1%
8/8/2020 03:50:01   ||||||||||||||||||||||||||||| (77 F) 38.2%
8/8/2020 03:40:01   ||||||||||||||||||||||||||||| (76.6 F) 36.8%
8/8/2020 03:30:01   |||||||||||||||||||||||||||||| (78.2 F) 38.4%
8/8/2020 03:20:02   |||||||||||||||||||||||||||||| (77.5 F) 38%
8/8/2020 03:10:00   ||||||||||||||||||||||||||||| (76.8 F) 37.8%
8/8/2020 03:00:01   |||||||||||||||||||||||||||| (76.1 F) 37.3%
8/8/2020 02:50:00   ||||||||||||||||||||||||||||| (76.6 F) 36.9%
8/8/2020 02:40:01   ||||||||||||||||||||||||||||| (76.9 F) 37%
8/8/2020 02:30:01   |||||||||||||||||||||||||||||| (78.1 F) 38.5%
8/8/2020 02:20:00   ||||||||||||||||||||||||||||| (77.2 F) 38.6%
8/8/2020 02:10:01   |||||||||||||||||||||||||||| (76.2 F) 37%
8/8/2020 02:00:00   |||||||||||||||||||||||||||||| (78.3 F) 37.7%
8/8/2020 01:50:01   |||||||||||||||||||||||||||||| (77.9 F) 39.2%
8/8/2020 01:40:01   ||||||||||||||||||||||||||||| (76.6 F) 36.9%
8/8/2020 01:30:00   ||||||||||||||||||||||||||||| (76.5 F) 36.9%
8/8/2020 01:20:01   ||||||||||||||||||||||||||||||| (78.6 F) 38.2%
8/8/2020 01:10:01   |||||||||||||||||||||||||||||| (78.2 F) 37.9%
8/8/2020 01:00:00   ||||||||||||||||||||||||||||| (77.1 F) 37.5%
8/8/2020 00:50:01   |||||||||||||||||||||||||||| (76.2 F) 36.9%
8/8/2020 00:40:01   ||||||||||||||||||||||||||||| (77 F) 36.7%
8/8/2020 00:30:00   ||||||||||||||||||||||||||||||| (78.7 F) 38.8%
8/8/2020 00:20:01   |||||||||||||||||||||||||||||| (78 F) 37.6%
8/8/2020 00:10:01   |||||||||||||||||||||||||||| (76.4 F) 36.6%
8/8/2020 00:00:01   ||||||||||||||||||||||||||||| (76.5 F) 36.4%
8/7/2020 23:50:01   |||||||||||||||||||||||||||||| (77.5 F) 35.9%
8/7/2020 23:40:00   ||||||||||||||||||||||||||||||| (79.1 F) 36.8%
8/7/2020 23:30:01   |||||||||||||||||||||||||||||| (78.4 F) 37.1%
8/7/2020 23:20:01   ||||||||||||||||||||||||||||| (77.2 F) 37.5%
8/7/2020 23:10:00   |||||||||||||||||||||||||||| (76.1 F) 35.4%
8/7/2020 23:00:01   |||||||||||||||||||||||||||| (76.3 F) 35.4%
8/7/2020 22:50:00   ||||||||||||||||||||||||||||| (77.1 F) 34.9%
8/7/2020 22:40:01   |||||||||||||||||||||||||||||||| (79.5 F) 36.7%
8/7/2020 22:30:01   ||||||||||||||||||||||||||||||| (78.9 F) 37%
8/7/2020 22:20:00   |||||||||||||||||||||||||||||| (77.8 F) 37.4%
8/7/2020 22:10:01   |||||||||||||||||||||||||||| (76 F) 35.9%
8/7/2020 22:00:00   |||||||||||||||||||||||||||| (76.3 F) 35.6%
8/7/2020 21:50:01   ||||||||||||||||||||||||||||| (76.5 F) 35.3%
8/7/2020 21:40:01   ||||||||||||||||||||||||||||| (77.2 F) 34.5%
8/7/2020 21:30:00   |||||||||||||||||||||||||||||||| (79.8 F) 36.3%
8/7/2020 21:20:00   ||||||||||||||||||||||||||||||| (79.2 F) 36.5%
8/7/2020 21:10:01   |||||||||||||||||||||||||||||| (78.3 F) 36.5%
8/7/2020 21:00:00   |||||||||||||||||||||||||||| (76.4 F) 35.2%
8/7/2020 20:50:01   ||||||||||||||||||||||||||||| (77.1 F) 35.2%
8/7/2020 20:40:00   ||||||||||||||||||||||||||||| (77.1 F) 35%
8/7/2020 20:30:01   ||||||||||||||||||||||||||||| (77.4 F) 34.7%
8/7/2020 20:20:01   ||||||||||||||||||||||||||||| (77 F) 34.6%
8/7/2020 20:10:00   ||||||||||||||||||||||||||||||| (78.8 F) 34.7%
8/7/2020 20:00:01   |||||||||||||||||||||||||||||||| (80.1 F) 35.9%
8/7/2020 19:50:01   ||||||||||||||||||||||||||||||| (79.3 F) 36.3%
8/7/2020 19:40:00   |||||||||||||||||||||||||||||| (78.2 F) 36.3%
8/7/2020 19:20:01   ||||||||||||||||||||||||||||| (76.8 F) 34.4%
8/7/2020 19:10:01   ||||||||||||||||||||||||||||| (76.8 F) 35.1%
8/7/2020 19:00:01   ||||||||||||||||||||||||||||| (77.1 F) 34.7%
8/7/2020 18:50:01   |||||||||||||||||||||||||||||||| (80.3 F) 37%
8/7/2020 18:40:01   |||||||||||||||||||||||||||||||| (79.5 F) 36.5%
8/7/2020 18:30:00   |||||||||||||||||||||||||||||| (78.2 F) 36.1%
8/7/2020 18:20:01   |||||||||||||||||||||||||||| (76.4 F) 34.5%
8/7/2020 18:10:01   ||||||||||||||||||||||||||||| (77 F) 34.7%
8/7/2020 18:00:01   ||||||||||||||||||||||||||||| (76.6 F) 34.9%
8/7/2020 17:50:01   |||||||||||||||||||||||||||| (76.4 F) 34.7%
8/7/2020 17:40:00   ||||||||||||||||||||||||||||| (77.2 F) 35.1%
8/7/2020 17:30:01   ||||||||||||||||||||||||||||| (77.1 F) 35.2%
8/7/2020 17:20:01   ||||||||||||||||||||||||||||| (76.5 F) 34.9%
8/7/2020 17:10:00   ||||||||||||||||||||||||||||| (77 F) 35%
8/7/2020 17:00:01   ||||||||||||||||||||||||||||| (77 F) 35%
8/7/2020 16:50:00   ||||||||||||||||||||||||||||| (77.4 F) 35.6%
8/7/2020 16:40:01   ||||||||||||||||||||||||||||| (77.1 F) 34.8%
8/7/2020 16:30:00   ||||||||||||||||||||||||||||| (77.4 F) 34.9%
8/7/2020 16:20:01   ||||||||||||||||||||||||||||| (76.8 F) 34.7%
8/7/2020 16:10:01   |||||||||||||||||||||||||||||| (77.5 F) 34.5%
8/7/2020 16:00:01   |||||||||||||||||||||||||||||| (78.3 F) 35%
8/7/2020 15:50:01   |||||||||||||||||||||||||||||| (77.5 F) 35.6%
8/7/2020 15:40:00   ||||||||||||||||||||||||||||||| (78.6 F) 35.5%
8/7/2020 15:30:00   ||||||||||||||||||||||||||||||||| (80.7 F) 37.9%
8/7/2020 15:20:00   |||||||||||||||||||||||||||||||| (79.8 F) 38%
8/7/2020 15:10:01   ||||||||||||||||||||||||||||||| (78.7 F) 37.3%
8/7/2020 15:00:00   ||||||||||||||||||||||||||||| (77.2 F) 35.4%
8/7/2020 14:50:01   ||||||||||||||||||||||||||||| (77.3 F) 36.3%
8/7/2020 14:40:00   ||||||||||||||||||||||||||||| (76.7 F) 36%
8/7/2020 14:30:01   |||||||||||||||||||||||||||||| (77.5 F) 36.1%
8/7/2020 14:20:01   |||||||||||||||||||||||||||||| (78.4 F) 36.8%
8/7/2020 14:10:00   |||||||||||||||||||||||||||||| (78.3 F) 37.8%
8/7/2020 14:00:00   |||||||||||||||||||||||||||||| (78.1 F) 38.2%
8/7/2020 13:50:01   |||||||||||||||||||||||||||||| (78.3 F) 38.3%